Wind_Speed
6 6 6 6 6 6 5 5 5 6 6 7 7 7 7 8 8 9 9 9 10 11 11 11 11 11 11 11 11 11 11 11 11 11 12 12 12 12 12 12 13 13 13
6 6 6 6 6 6 6 6 6 6 6 7 7 7 8 8 9 10 11 11 11 12 11 11 12 12 12 12 12 12 12 12 12 12 13 13 14 14 14 14 14 14 15
6 6 6 6 7 7 7 7 7 7 7 7 8 8 9 9 10 11 12 13 13 13 13 13 13 13 13 13 13 13 13 13 13 14 14 15 15 15 15 15 15 16 16
6 6 6 6 7 8 8 8 8 8 8 8 9 10 10 11 12 12 13 13 14 14 14 14 14 14 14 14 14 14 14 14 15 15 15 16 16 16 16 16 17 17 17
7 7 7 7 8 8 9 10 10 10 10 10 10 11 12 12 13 13 14 14 14 15 14 15 15 15 15 15 15 15 15 16 16 16 16 17 17 18 17 18 18 18 18
9 8 8 8 8 9 10 11 11 11 11 11 12 12 13 14 14 14 15 15 15 15 15 15 16 17 17 16 17 17 17 17 17 18 18 18 18 18 18 19 19 19 19
9 9 9 9 10 10 11 11 12 12 12 13 14 14 15 15 15 15 16 16 16 16 17 17 18 18 18 18 18 18 18 18 18 19 19 19 19 19 19 20 20 20 19
10 10 11 11 11 12 12 12 12 13 13 14 15 15 15 16 16 17 17 17 17 18 18 19 19 20 19 19 19 19 19 20 20 20 20 20 20 20 20 20 20 20 20
11 11 12 11 12 13 13 13 13 14 14 15 16 16 16 17 17 18 18 19 20 20 20 20 20 20 20 20 20 20 21 21 21 21 21 22 22 22 22 21 21 21 21
12 12 12 13 13 14 15 14 14 15 15 16 16 17 18 18 19 19 20 21 22 22 21 21 21 21 21 21 21 21 22 22 22 23 23 23 24 23 23 23 22 22 22
13 14 14 14 15 15 15 15 15 16 16 17 17 18 19 20 20 21 21 21 22 22 22 23 22 22 23 23 22 23 23 24 23 24 25 24 24 24 24 24 24 24 24
14 14 15 15 15 15 16 16 16 17 17 17 18 19 20 21 21 21 22 22 22 23 23 24 24 24 24 25 25 25 25 25 26 25 25 25 25 25 25 25 25 25 25
14 14 15 16 16 16 17 17 17 17 18 18 18 20 20 21 22 22 22 23 23 24 24 25 26 26 26 26 26 27 27 27 27 27 26 26 26 26 26 26 26 26 26
14 13 14 15 16 16 17 18 18 18 19 19 19 20 21 22 22 23 24 25 25 25 26 27 27 28 29 28 28 28 28 28 28 28 27 27 27 27 27 26 26 26 26
15 15 15 16 17 17 19 20 20 20 19 19 19 20 22 23 23 23 24 24 25 26 27 28 28 28 29 29 29 29 29 28 28 29 29 29 28 28 28 28 27 27 27
16 16 15 16 17 18 19 20 21 21 21 21 21 21 23 23 24 24 25 25 25 26 27 28 28 28 29 29 29 29 29 29 29 29 29 28 28 28 28 28 28 28 27
17 17 16 17 18 19 20 21 21 22 22 22 23 23 23 24 24 25 26 26 26 27 27 28 28 28 29 29 29 28 29 29 29 29 29 29 28 29 28 28 29 28 28
17 17 18 19 19 20 21 21 22 22 23 24 24 25 24 25 25 25 26 27 27 27 27 27 28 29 29 30 30 29 29 29 28 28 29 29 29 29 28 28 29 29 29
17 18 18 19 19 20 20 21 21 21 23 24 25 26 26 26 26 26 26 27 27 27 27 27 28 28 29 30 31 30 30 29 28 28 28 29 29 29 29 29 29 29 29
16 17 18 19 19 19 20 21 21 22 23 24 24 25 26 26 26 26 27 27 27 27 26 27 28 28 28 28 29 29 30 29 28 28 28 28 29 29 29 29 29 29 29
17 18 19 19 18 18 19 20 21 22 23 23 23 24 25 25 26 26 27 27 26 26 26 27 28 27 27 27 27 27 27 27 28 28 28 28 28 29 29 29 28 29 29
18 18 18 18 18 18 19 20 21 22 22 22 23 23 23 24 24 25 25 25 26 25 25 26 26 25 25 26 25 25 26 26 27 27 27 28 28 29 30 30 29 29 30
17 17 18 18 18 19 20 20 20 20 21 22 22 22 22 22 23 24 24 24 24 24 24 25 25 24 24 24 24 25 24 24 25 26 27 29 29 30 30 30 30 30 30
17 18 19 20 19 20 20 20 19 19 20 21 22 22 22 23 23 23 23 22 22 23 24 23 23 24 24 24 24 25 25 26 26 25 26 28 29 30 30 30 30 30 29
19 20 21 21 20 20 19 19 19 20 21 22 22 22 22 23 23 23 23 22 22 22 22 22 23 23 25 25 24 25 26 27 27 27 26 27 29 29 30 30 30 29 28
20 22 22 22 21 20 20 20 20 20 21 22 22 22 22 23 23 23 23 23 22 22 22 23 24 24 25 25 25 26 27 28 28 27 27 27 28 28 28 28 28 29 29
Wind_Direction
343 343 335 322 317 314 315 323 327 329 333 332 329 325 321 317 317 318 314 312 310 308 305 302 300 297 294 294 293 291 291 293 288 283 279 277 274 271 269 266 257 253 253
332 336 325 317 313 312 311 311 315 317 324 325 321 316 315 313 312 312 311 308 304 301 299 296 296 294 290 290 290 288 288 289 288 283 280 277 275 271 268 266 263 259 258
327 332 323 317 309 306 307 307 310 310 313 314 314 310 310 311 310 310 308 307 303 299 295 292 291 290 288 288 287 287 287 285 284 282 279 276 273 271 268 266 264 260 260
317 321 314 312 312 309 306 310 310 309 308 305 305 306 305 306 306 306 306 304 302 300 295 291 288 286 286 285 284 284 284 282 281 279 277 274 272 271 270 267 264 262 260
306 304 301 301 309 313 312 310 306 306 305 301 299 302 300 301 302 301 302 301 299 298 296 293 289 285 284 283 283 282 282 281 280 279 277 275 273 270 269 268 266 264 262
299 295 296 295 303 310 307 307 309 305 299 296 296 298 298 299 300 299 298 299 298 296 295 294 291 288 285 281 280 280 279 278 278 278 277 275 273 270 269 268 267 265 262
298 300 303 302 301 301 301 300 303 301 298 296 295 295 295 296 296 298 297 297 299 296 294 293 293 289 285 283 281 280 279 278 278 278 277 276 274 271 269 268 267 266 262
292 297 298 296 297 298 299 297 299 298 296 297 295 293 293 293 293 295 295 294 296 294 293 291 291 290 286 283 282 282 280 277 277 277 276 274 273 271 270 268 267 265 264
287 293 291 293 294 294 296 294 295 294 293 295 295 294 293 292 291 291 292 292 292 291 290 289 289 290 288 284 282 281 280 278 276 275 276 274 273 271 269 267 266 264 264
285 288 288 290 293 293 292 291 289 289 290 292 292 292 292 290 290 290 289 290 290 289 287 285 285 287 287 285 284 283 281 278 276 275 276 275 273 270 269 268 266 265 264
286 288 289 289 291 293 289 288 286 287 288 289 288 288 289 288 288 289 288 288 288 288 287 284 284 284 284 283 283 283 282 279 278 277 276 276 273 270 269 268 266 264 264
288 288 288 288 288 289 288 285 285 286 287 289 289 287 288 286 288 290 288 287 287 288 286 284 284 283 283 283 281 280 281 279 278 277 276 275 274 272 270 268 266 265 264
288 284 286 285 285 287 288 288 287 287 288 288 289 289 287 287 288 288 287 286 287 286 284 283 282 282 282 283 281 279 279 278 277 276 275 275 274 272 270 268 266 265 263
286 285 285 284 285 286 287 290 291 292 287 286 287 287 287 287 288 289 289 287 285 284 283 283 282 280 281 280 279 278 277 277 276 275 275 275 272 270 269 267 266 265 264
290 290 285 284 287 288 289 289 292 290 288 290 290 290 289 288 288 289 291 287 284 284 283 284 283 281 280 280 279 277 276 275 274 273 273 272 270 268 269 267 266 264 263
289 289 285 283 283 285 287 287 289 291 291 292 290 291 290 291 290 291 292 290 285 285 286 286 284 282 282 281 280 277 275 273 271 271 271 271 269 269 268 267 266 263 262
293 290 286 285 286 288 288 286 287 292 293 292 291 292 292 291 291 292 292 289 286 286 287 286 284 284 282 282 281 277 275 271 270 269 270 270 269 269 268 266 265 263 261
292 291 289 290 289 288 289 289 288 289 291 293 294 294 294 293 293 293 292 289 287 286 286 286 286 284 283 281 281 280 278 274 272 270 269 269 267 267 268 266 265 263 261
291 293 294 295 292 289 289 290 289 288 289 292 295 295 295 293 293 293 292 291 289 287 286 286 286 286 284 283 282 281 279 275 274 272 270 269 267 267 267 267 265 263 261
295 298 299 298 295 294 294 291 289 288 290 293 295 297 295 293 292 294 293 292 289 287 286 285 285 286 286 285 282 280 278 276 274 272 270 270 268 267 267 267 266 264 262
300 300 301 300 297 296 297 296 293 294 294 295 296 297 297 294 294 294 293 292 290 289 289 288 286 287 288 286 284 281 279 277 275 273 271 270 269 267 265 265 265 264 262
301 301 303 303 300 298 298 297 298 298 297 297 298 299 298 296 297 297 296 296 293 291 289 289 290 289 290 288 286 283 281 281 278 275 273 272 270 268 265 264 264 264 262
303 302 304 306 305 303 301 300 302 299 299 300 299 299 299 299 298 298 299 299 298 296 293 292 291 290 289 289 288 288 286 284 280 278 276 274 272 269 267 265 264 264 262
301 301 304 306 306 306 305 304 305 304 303 303 303 302 301 300 299 299 300 300 300 298 294 294 293 291 290 289 289 289 287 286 285 281 278 275 273 270 267 266 265 262 260
303 302 304 306 306 306 304 307 308 307 305 305 305 303 300 300 300 301 301 302 300 297 296 296 295 295 294 293 291 291 289 287 285 283 280 276 274 271 268 266 263 261 259
307 308 308 306 305 303 303 304 305 304 304 304 304 303 300 300 301 303 304 304 300 297 297 298 298 298 296 294 292 291 290 288 286 283 281 278 275 272 269 266 263 261 260
Height
5880 5879 5879 5879 5879 5878 5878 5878 5878 5877 5877 5877 5877 5877 5877 5877 5877 5877 5877 5877 5877 5877 5877 5877 5877 5876 5876 5876 5876 5876 5876 5876 5876 5876 5876 5877 5877 5877 5877 5878 5878 5878 5879
5879 5878 5878 5878 5878 5878 5877 5877 5876 5876 5876 5876 5876 5876 5876 5876 5876 5876 5875 5875 5875 5874 5874 5874 5874 5874 5874 5874 5874 5874 5874 5874 5874 5874 5874 5874 5874 5875 5875 5875 5876 5876 5877
5877 5877 5877 5877 5877 5877 5876 5875 5875 5874 5874 5874 5874 5874 5874 5874 5874 5874 5873 5873 5872 5872 5872 5872 5872 5872 5872 5872 5872 5872 5871 5871 5871 5871 5871 5871 5871 5872 5872 5872 5873 5873 5874
5876 5876 5875 5876 5875 5875 5875 5874 5873 5873 5873 5872 5872 5872 5872 5872 5871 5871 5871 5870 5870 5870 5869 5869 5869 5869 5869 5869 5869 5869 5869 5868 5868 5868 5868 5868 5868 5869 5869 5869 5869 5870 5871
5874 5874 5874 5874 5873 5873 5873 5872 5872 5871 5871 5871 5870 5870 5870 5869 5869 5869 5868 5868 5867 5867 5867 5866 5866 5866 5866 5866 5866 5865 5865 5865 5865 5865 5865 5865 5865 5865 5865 5866 5866 5866 5867
5873 5872 5872 5871 5871 5871 5871 5870 5870 5869 5869 5869 5868 5868 5867 5867 5867 5866 5866 5865 5865 5864 5864 5864 5863 5863 5863 5862 5862 5862 5862 5861 5861 5861 5861 5861 5861 5861 5862 5862 5862 5862 5863
5871 5870 5870 5869 5869 5869 5869 5868 5867 5867 5867 5866 5866 5865 5865 5865 5864 5863 5863 5862 5862 5861 5861 5860 5860 5859 5859 5859 5858 5858 5858 5857 5857 5857 5857 5857 5857 5857 5857 5857 5858 5858 5859
5868 5868 5867 5867 5866 5866 5866 5865 5865 5864 5864 5863 5863 5862 5862 5862 5861 5860 5860 5859 5859 5858 5857 5857 5856 5855 5855 5855 5854 5854 5853 5853 5853 5853 5853 5853 5853 5853 5853 5853 5853 5854 5854
5866 5865 5865 5864 5864 5864 5863 5863 5862 5861 5861 5860 5860 5859 5858 5858 5858 5857 5856 5856 5855 5854 5854 5853 5852 5851 5851 5850 5850 5849 5849 5848 5848 5848 5848 5848 5848 5848 5848 5848 5849 5849 5849
5863 5862 5862 5861 5861 5860 5860 5859 5859 5858 5858 5857 5856 5856 5855 5854 5854 5853 5852 5852 5851 5850 5849 5848 5847 5847 5846 5846 5846 5845 5844 5844 5843 5843 5843 5843 5843 5842 5842 5843 5843 5844 5844
5860 5859 5859 5858 5858 5857 5856 5856 5855 5855 5854 5854 5853 5852 5851 5850 5850 5849 5848 5847 5846 5845 5844 5843 5843 5842 5841 5841 5841 5840 5840 5839 5838 5838 5838 5837 5837 5837 5837 5837 5838 5838 5839
5856 5856 5855 5855 5854 5853 5852 5852 5851 5851 5850 5850 5849 5848 5847 5847 5846 5844 5844 5843 5842 5841 5839 5838 5838 5837 5836 5836 5835 5835 5834 5834 5833 5832 5832 5832 5831 5831 5832 5832 5832 5833 5834
5853 5852 5851 5851 5850 5849 5849 5848 5847 5846 5846 5846 5845 5844 5843 5842 5841 5840 5839 5838 5837 5836 5834 5833 5832 5831 5831 5830 5830 5829 5828 5827 5827 5826 5826 5826 5826 5825 5826 5826 5826 5827 5828
5849 5848 5847 5847 5846 5846 5845 5844 5843 5842 5842 5841 5840 5839 5838 5837 5836 5835 5834 5832 5831 5830 5829 5828 5826 5825 5825 5824 5824 5823 5822 5821 5820 5820 5820 5820 5820 5819 5819 5820 5820 5821 5822
5845 5844 5843 5843 5842 5841 5841 5840 5839 5838 5837 5836 5835 5834 5834 5832 5831 5830 5828 5826 5825 5824 5823 5822 5820 5819 5818 5817 5816 5816 5815 5815 5814 5814 5813 5813 5813 5813 5813 5813 5814 5814 5815
5841 5840 5839 5838 5837 5837 5836 5836 5835 5834 5833 5832 5830 5829 5828 5827 5825 5824 5822 5820 5819 5817 5816 5815 5814 5813 5811 5810 5809 5809 5808 5808 5807 5807 5806 5806 5806 5806 5806 5806 5807 5807 5808
5838 5836 5835 5834 5833 5832 5831 5831 5830 5829 5828 5826 5825 5824 5822 5821 5819 5817 5816 5814 5812 5811 5809 5808 5807 5806 5804 5803 5802 5801 5800 5800 5800 5799 5799 5799 5799 5799 5799 5799 5800 5800 5801
5833 5832 5830 5829 5827 5826 5826 5825 5824 5824 5823 5821 5820 5818 5816 5815 5813 5811 5809 5808 5806 5804 5803 5801 5800 5798 5797 5796 5795 5794 5793 5792 5792 5792 5792 5792 5792 5792 5792 5792 5792 5793 5794
5828 5827 5825 5824 5822 5821 5820 5819 5819 5818 5817 5815 5813 5812 5810 5808 5807 5804 5803 5801 5799 5797 5795 5794 5793 5791 5790 5788 5787 5786 5785 5785 5784 5784 5784 5784 5784 5784 5784 5785 5785 5786 5786
5824 5822 5821 5819 5817 5816 5814 5813 5812 5812 5811 5809 5807 5805 5803 5801 5799 5797 5796 5794 5792 5790 5788 5787 5785 5784 5782 5780 5779 5778 5777 5777 5776 5776 5776 5777 5777 5777 5777 5777 5778 5778 5779
5820 5818 5816 5814 5813 5811 5809 5808 5807 5806 5804 5803 5801 5799 5797 5794 5792 5790 5788 5786 5784 5782 5781 5779 5778 5776 5775 5773 5771 5770 5770 5769 5768 5768 5768 5768 5769 5769 5769 5769 5770 5771 5772
5816 5814 5812 5810 5808 5806 5804 5802 5801 5799 5798 5796 5794 5792 5790 5788 5785 5783 5781 5779 5777 5775 5773 5772 5771 5769 5767 5765 5764 5763 5763 5762 5760 5760 5760 5760 5760 5761 5761 5761 5762 5763 5764
5812 5810 5808 5806 5803 5801 5799 5797 5795 5793 5792 5790 5788 5786 5784 5781 5779 5777 5775 5772 5770 5768 5766 5765 5764 5762 5761 5759 5757 5756 5755 5755 5754 5753 5752 5752 5752 5752 5753 5753 5753 5754 5755
5808 5806 5804 5801 5799 5796 5794 5792 5790 5788 5786 5785 5783 5780 5778 5776 5773 5771 5769 5766 5764 5761 5760 5758 5757 5755 5753 5752 5750 5748 5748 5747 5746 5746 5745 5744 5744 5744 5744 5744 5745 5746 5747
5805 5802 5800 5797 5794 5791 5789 5787 5785 5783 5781 5780 5777 5774 5772 5770 5768 5765 5763 5760 5758 5756 5754 5752 5750 5748 5747 5745 5743 5741 5740 5739 5737 5737 5738 5737 5736 5735 5736 5736 5737 5738 5739
5801 5798 5795 5793 5790 5787 5785 5782 5780 5779 5777 5775 5772 5769 5767 5765 5763 5760 5757 5754 5752 5750 5748 5746 5744 5742 5740 5738 5736 5734 5733 5731 5730 5729 5729 5729 5728 5728 5727 5728 5728 5729 5730